Location: Nashville
(36.1660°N, 86.7840°W)
Time: 23:54:30
(UTC-05:00)

Vanguard 2 - Pass Details

Date: 29 June 2022
Orbit: 552 x 2934 km, 32.9° (Epoch: 10 August)

Event Time Altitude Azimuth Distance (km) Brightness Sun altitude
Rises 22:50:57 0° 270° (W) 3,582 11.4 -24.3°
Reaches altitude 10° 22:54:00 10° 266° (W) 2,353 10.3 -24.6°
Enters shadow 22:57:38 38° 241° (WSW) 1,011 8.1 -24.9°
